LFJLLFLB

Guest
Details From LFJL - Metz-Nancy-Lorraine
To LFLB - Aix-Les-Bains
Flight Number -
Tags generated
Created
Modified
Stats Distance 201 nm / 373 km
Max Altitude 14,000 ft / 4,267 m
Waypoints 3
Social Downloads 0
Likes 0
Share VATSIM

Download

Looking for another format? Having issues loading an existing format? Contact us
Advertisement - Login to hide

Notes

Basic altitude profile: - Ascent Rate: 2500ft/min - Ascent Speed: 250kts - Cruise Altitude: 14000ft - Cruise Speed: 420kts - Descent Rate: 1500ft/min - Descent Speed: 250kts

Route

LFJL PENDU LFLB

ID Type Via Altitude Latitude Longitude Leg Dist Tot Dist Heading (true) Name
O LFJL APT - 0 ft / 0 m 48.98065˚ 6.24947˚ - 0 nm - Metz-Nancy-Lorraine
PENDU FIX - 14,000 ft / 4,267 m 47.34889˚ 6.03278˚ 98 nm 98 nm 185° / 185° -
O LFLB APT - 0 ft / 0 m 45.63623˚ 5.88090˚ 103 nm 201 nm 184° / 183° Aix-Les-Bains

Altitude Profile

Advertisement - Login to hide

Weather


0- 5 10 15 20 25 30 35+ Temperature / ° C

Clouds and Precipitation
Forecast for 2018-05-23 18:00 UTC. Updated 6 hours ago

Ground ~20,000 ft ~40,000 ft Winds

LFJL

Details ICAO LFJL (ETZ)
Name Metz-Nancy-Lorraine
Region France
Timezone Europe/Paris (UTC+2.0)
Stats Elevation 870 ft / 265 m (AMSL)
Location 48.980645° 6.249473°
Runways 1
Magnetic Variation 1.775° E

METAR

LFJL 232300Z AUTO 03003KT 6000 NSC 15/14 Q1018 NOSIG

Decode

TAF

TAF AMD LFJL 231958Z 2319/2418 VRB04KT 9999 FEW030 BKN080 TEMPO 2320/2322 4000 TSRA SCT050CB PROB40 TEMPO 2402/2407 BKN007 BECMG 2407/2409 20005KT PROB40 TEMPO 2412/2418 -SHRA SCT045TCU

Decode

Departure Runways

ID Width Length Bearing (true) Bearing (mag) Surface Threshold Offset Overrun Length
04 148 ft / 45 m 10,016 ft / 3,053 m 39.13° 37.35° Asphalt 656 ft / 200 m 0 ft / 0 m
22 148 ft / 45 m 10,016 ft / 3,053 m 219.15° 217.37° Asphalt 0 ft / 0 m 0 ft / 0 m

LFLB

Details ICAO LFLB (CMF)
Name Aix-Les-Bains
Region France
Timezone Europe/Paris (UTC+2.0)
Stats Elevation 779 ft / 237 m (AMSL)
Location 45.636234° 5.880898°
Runways 2
Magnetic Variation 1.742° E

METAR

LFLB 232300Z AUTO VRB01KT 9000 2600 NSC 11/11 Q1019

Decode

TAF

TAF TAF LFLB 231913Z 2319/2412 CNL

Decode

Destination Runways

ID Width Length Bearing (true) Bearing (mag) Surface Threshold Offset Overrun Length
18 148 ft / 45 m 5,452 ft / 1,662 m 176.72° 174.98° Asphalt 26 ft / 8 m 774 ft / 236 m
18L 197 ft / 60 m 2,309 ft / 704 m 176.70° 174.96° Grass 0 ft / 0 m 0 ft / 0 m
36 148 ft / 45 m 5,452 ft / 1,662 m 356.72° 354.98° Asphalt 23 ft / 7 m 456 ft / 139 m
36R 197 ft / 60 m 2,309 ft / 704 m 356.70° 354.96° Grass 315 ft / 96 m 0 ft / 0 m

Approach Navaids

Runway Type Ident Frequency Range Bearing (true) Bearing (mag) Slope Elevation
18 Localiser CY 109.50 MHz 27 nm / 50 km 176.73° 174.99° - 779 ft / 237 m (AMSL)
18 Glidescope CY 109.50 MHz 27 nm / 50 km 176.73° 174.99° 4.46° 779 ft / 237 m (AMSL)
18 DME CY 109.50 MHz 27 nm / 50 km - - - 779 ft / 237 m (AMSL)

Popular Alternatives